FW4110 Weather Reports


time (UTC)temp
C
wind
direction
speed
KPH
gust
KPH
rain 1hr
cm
rain 24hr
cm
rain mn
cm
humidity
%
barometer
mb
20260901174551 35 335 1.6 9.7 0.00 0.00 0.00 67 1018.7
20260901173044 34 291 4.8 14.5 0.00 0.00 0.00 69 1018.7
20260901171537 34 341 3.2 6.4 0.00 0.00 0.00 70 1018.8
20260901170032 33 181 3.2 8.0 0.00 0.00 0.00 72 1019.0
20260901164525 33 277 1.6 8.0 0.00 0.00 0.00 73 1019.2
20260901163020 33 206 1.6 8.0 0.00 0.00 0.00 72 1019.3
20260901161514 33 342 3.2 11.3 0.00 0.00 0.00 74 1019.5
20260901160011 32 180 1.6 11.3 0.00 0.00 0.00 75 1019.4
20260901154506 32 358 1.6 11.3 0.00 0.00 0.00 75 1019.5
20260901153004 31 332 4.8 9.7 0.00 0.00 0.00 76 1019.7
20260901151600 31 300 1.6 14.5 0.00 0.00 0.00 76 1019.8
20260901150107 31 249 0.0 11.3 0.00 0.00 0.00 77 1019.8
20260901144552 30 199 1.6 9.7 0.00 0.00 0.00 78 1019.6
20260901143046 30 271 1.6 9.7 0.00 0.00 0.00 78 1019.7
20260901141554 28 230 1.6 9.7 0.00 0.00 0.00 79 1020.0
20260901140040 28 295 3.2 9.7 0.00 0.00 0.00 79 1019.9
20260901134533 28 229 1.6 9.7 0.00 0.00 0.00 79 1019.9
20260901133029 27 213 1.6 6.4 0.00 0.00 0.00 78 1019.9
20260901131528 26 214 1.6 6.4 0.00 0.00 0.00 78 1020.0
20260901130022 26 178 0.0 3.2 0.00 0.00 0.00 78 1020.0
20260901124535 25 170 0.0 3.2 0.00 0.00 0.00 78 1019.8
20260901123015 23 172 0.0 3.2 0.00 0.00 0.00 77 1019.6
20260901121511 -17 0.0 0.0 0.00 0.00 0.00 1019.2
20260901120005 -17 0.0 0.0 0.00 0.00 0.00 1019.4
20260901114609 -17 0.0 0.0 0.00 0.00 0.00 1019.2
20260901113059 -17 0.0 0.0 0.00 0.00 0.00 1019.0
20260901111557 -17 0.0 0.0 0.00 0.00 0.00 1019.1
20260901110049 -17 0.0 0.0 0.00 0.00 0.00 1019.0
20260901104539 -17 0.0 0.0 0.00 0.00 0.00 1019.0
20260901103038 -17 0.0 0.0 0.00 0.00 0.00 1018.8
20260901101529 -17 184 0.0 0.0 0.00 0.00 0.00 1018.7
20260901100025 23 185 0.0 0.0 0.00 0.00 0.00 84 1018.5
20260901094523 23 187 0.0 0.0 0.00 0.00 0.00 82 1018.5
20260901093018 23 169 0.0 3.2 0.00 0.00 0.00 83 1018.5
20260901091517 22 153 0.0 0.0 0.00 0.00 0.00 85 1018.3
20260901090012 22 153 0.0 0.0 0.00 0.00 0.00 87 1018.4
20260901084507 23 153 0.0 0.0 0.00 0.00 0.00 88 1018.1
20260901083003 23 153 0.0 0.0 0.00 0.00 0.00 88 1017.9
20260901081600 23 151 0.0 1.6 0.00 0.00 0.00 88 1017.7
20260901080104 23 147 0.0 0.0 0.00 0.00 0.00 89 1017.8
20260901074551 25 147 0.0 0.0 0.00 0.00 0.00 88 1017.8
20260901073046 25 147 0.0 0.0 0.00 0.00 0.00 87 1017.8
20260901071542 26 144 0.0 1.6 0.00 0.00 0.00 86 1017.6
20260901070046 26 180 1.6 4.8 0.00 0.00 0.00 86 1017.5
20260901064538 26 169 1.6 4.8 0.00 0.00 0.00 86 1017.7
20260901063047 26 149 1.6 6.4 0.00 0.00 0.00 86 1017.7
20260901061531 26 154 1.6 6.4 0.00 0.00 0.00 86 1017.7
20260901060027 26 174 3.2 6.4 0.00 0.00 0.00 85 1017.7
20260901054525 27 178 1.6 8.0 0.00 0.00 0.00 85 1017.7
20260901053021 27 192 1.6 8.0 0.00 0.00 0.00 85 1017.6
20260901051520 27 167 4.8 9.7 0.00 0.00 0.00 85 1017.6
20260901050016 27 171 3.2 8.0 0.00 0.00 0.00 85 1017.6
20260901044513 27 187 4.8 8.0 0.00 0.00 0.00 84 1017.7
20260901043012 27 154 1.6 6.4 0.00 0.00 0.00 84 1017.8
20260901041509 28 168 1.6 6.4 0.00 0.00 0.00 83 1017.8
20260901040008 28 150 3.2 8.0 0.00 0.00 0.00 82 1017.7
20260901034511 28 173 4.8 9.7 0.00 0.00 0.00 82 1017.8
20260901033003 28 152 3.2 11.3 0.00 0.00 0.00 82 1017.8
20260901031503 28 165 4.8 9.7 0.00 0.00 0.00 82 1017.7
20260901030058 28 173 3.2 9.7 0.00 0.00 0.00 82 1017.7
20260901024556 28 159 4.8 8.0 0.00 0.00 0.00 82 1017.7
20260901023054 28 149 1.6 6.4 0.00 0.00 0.00 82 1017.6
20260901021552 29 175 1.6 6.4 0.00 0.00 0.00 81 1017.6
20260901020052 29 166 0.0 4.8 0.00 0.00 0.00 80 1017.3
20260901014547 30 222 1.6 4.8 0.00 0.00 0.00 80 1017.2
20260901013045 30 149 0.0 3.2 0.00 0.00 0.00 80 1017.0
20260901011543 30 178 0.0 1.6 0.00 0.00 0.00 79 1016.9
20260901010044 31 171 0.0 4.8 0.00 0.00 0.00 77 1016.8
20260901004537 31 142 1.6 8.0 0.00 0.00 0.00 76 1016.8
20260901003036 32 156 0.0 3.2 0.00 0.00 0.00 75 1016.7
20260901001533 32 166 0.0 3.2 0.00 0.00 0.00 72 1016.8
20260901000036 33 241 0.0 4.8 0.00 0.00 0.00 71 1016.7
20260831234529 34 156 1.6 6.4 0.00 0.00 0.00 68 1016.7
20260831233027 35 171 1.6 8.0 0.00 0.00 0.00 66 1016.7
20260831231523 35 202 0.0 6.4 0.00 0.00 0.00 64 1016.7
20260831230022 35 253 1.6 8.0 0.00 0.00 0.00 64 1016.7
20260831224519 36 163 3.2 8.0 0.00 0.00 0.00 63 1016.4
20260831223023 36 182 3.2 9.7 0.00 0.00 0.00 61 1016.4
20260831221519 37 308 0.0 8.0 0.00 0.00 0.00 59 1016.5
20260831220112 37 251 3.2 11.3 0.00 0.00 0.00 60 1016.6
20260831214508 37 270 1.6 8.0 0.00 0.00 0.00 60 1016.6
20260831213005 37 299 1.6 9.7 0.00 0.00 0.00 62 1016.6
20260831211602 37 171 1.6 11.3 0.00 0.00 0.00 59 1016.6
20260831210055 36 153 1.6 16.1 0.00 0.00 0.00 63 1016.6
20260831204554 36 211 3.2 11.3 0.00 0.00 0.00 63 1016.7
20260831203044 36 258 3.2 9.7 0.00 0.00 0.00 63 1016.7
20260831201539 36 354 1.6 14.5 0.00 0.00 0.00 63 1017.1
20260831200033 36 144 0.0 16.1 0.00 0.00 0.00 64 1017.3
20260831194529 36 240 1.6 9.7 0.00 0.00 0.00 65 1017.4
20260831193030 35 298 1.6 12.9 0.00 0.00 0.00 65 1017.4
20260831191515 35 259 0.0 9.7 0.00 0.00 0.00 66 1017.5
20260831190010 35 268 6.4 17.7 0.00 0.00 0.00 66 1017.7
20260831184503 35 221 3.2 9.7 0.00 0.00 0.00 68 1017.9
20260831183104 35 348 4.8 11.3 0.00 0.00 0.00 67 1018.0
20260831181608 34 246 3.2 9.7 0.00 0.00 0.00 67 1018.2
20260831180045 33 191 1.6 9.7 0.00 0.00 0.00 69 1018.5